DB0SVX Weather Reports


Display with metric or nautical units.
time (UTC)temp
F
wind
direction
speed
MPH
gust
MPH
rain 1hr
in
rain 24hr
in
rain mn
in
humidity
%
barometer
mb
20260505122521 67 45 0.0 0.0 0.00 0.00 0.00 42 1006.7
20260505121021 62 45 0.0 0.0 0.00 0.00 0.00 45 1007.0
20260505115521 62 45 2.0 0.0 0.00 0.00 0.00 46 1007.2
20260505114021 65 337 0.0 0.0 0.00 0.00 0.00 45 1007.2
20260505112521 69 0 2.0 0.0 0.00 0.00 0.00 42 1007.0
20260505111022 71 270 0.0 0.0 0.00 0.00 0.00 39 1006.7
20260505101021 72 315 2.0 0.0 0.00 0.00 0.00 38 1006.7
20260505095521 71 315 0.0 0.0 0.00 0.00 0.00 39 1006.9
20260505094021 72 315 0.0 0.0 0.00 0.00 0.00 37 1006.9
20260505092521 75 315 0.0 0.0 0.00 0.00 0.00 35 1007.0
20260505091021 79 315 0.0 0.0 0.00 0.00 0.00 34 1007.2
20260505085521 75 270 4.0 0.0 0.00 0.00 0.00 36 1007.2
20260505084021 73 225 6.0 0.0 0.00 0.00 0.00 37 1007.2
20260505082521 71 337 0.0 0.0 0.00 0.00 0.00 38 1007.4
20260505081021 71 0 0.0 0.0 0.00 0.00 0.00 36 1007.5
20260505075521 67 0 2.0 0.0 0.00 0.00 0.00 37 1007.5
20260505074021 65 292 0.0 0.0 0.00 0.00 0.00 38 1007.7
20260505072521 64 292 0.0 0.0 0.00 0.00 0.00 37 1007.9
20260505071021 62 292 0.0 0.0 0.00 0.00 0.00 36 1007.9
20260505065521 60 247 0.0 0.0 0.00 0.00 0.00 30 1008.0
20260505064021 56 270 3.0 0.0 0.00 0.00 0.00 28 1008.2
20260505062521 54 270 3.0 0.0 0.00 0.00 0.00 23 1008.2
20260505061021 52 0 0.0 0.0 0.00 0.00 0.00 20 1008.2
20260505055521 51 247 2.0 0.0 0.00 0.00 0.00 19 1008.2
20260505054021 50 247 2.0 0.0 0.00 0.00 0.00 16 1008.5
20260505052521 49 270 0.0 0.0 0.00 0.00 0.00 15 1008.2
20260505051021 48 270 2.0 0.0 0.00 0.00 0.00 18 1008.2
20260505041021 44 270 0.0 0.0 0.00 0.00 0.00 32 1008.7
20260505035521 44 22 0.0 0.0 0.00 0.00 0.00 35 1008.5
20260505034021 44 22 0.0 0.0 0.00 0.00 0.00 35 1008.5
20260505032521 45 22 0.0 0.0 0.00 0.00 0.00 36 1008.9
20260505031021 45 22 0.0 0.0 0.00 0.00 0.00 37 1008.7
20260505025521 45 22 0.0 0.0 0.00 0.00 0.00 39 1008.9
20260505024021 45 22 0.0 0.0 0.00 0.00 0.00 39 1009.0
20260505022521 46 22 0.0 0.0 0.00 0.00 0.00 40 1009.0
20260505021021 46 22 0.0 0.0 0.00 0.00 0.00 42 1009.4
20260505015521 46 22 0.0 0.0 0.00 0.00 0.00 43 1009.5
20260505014021 47 22 0.0 0.0 0.00 0.00 0.00 43 1009.7
20260505012521 48 0 0.0 0.0 0.00 0.00 0.00 43 1009.7
20260505011021 48 0 0.0 0.0 0.00 0.00 0.00 44 1009.7
20260505005521 48 0 0.0 0.0 0.00 0.00 0.00 45 1009.9
20260505004021 48 337 2.0 0.0 0.00 0.00 0.00 47 1009.9
20260505002521 48 292 0.0 0.0 0.00 0.00 0.00 48 1010.0
20260505001021 48 180 0.0 0.0 0.00 0.00 0.00 49 1010.2
20260504235521 48 180 0.0 0.0 0.00 0.00 0.00 50 1010.2
20260504234021 49 180 0.0 0.0 0.00 0.00 0.00 51 1010.4
20260504232521 50 180 2.0 0.0 0.00 0.00 0.00 51 1010.5
20260504231021 51 90 0.0 0.0 0.00 0.00 0.00 51 1010.5
20260504225521 52 90 0.0 0.0 0.00 0.00 0.00 50 1010.7
20260504224021 53 90 0.0 0.0 0.00 0.00 0.00 50 1010.7
20260504222521 54 90 0.0 0.0 0.00 0.00 0.00 51 1010.7
20260504221021 54 90 0.0 0.0 0.00 0.00 0.00 51 1010.7
20260504215521 55 90 0.0 0.0 0.00 0.00 0.00 50 1010.7
20260504214021 55 90 0.0 0.0 0.00 0.00 0.00 50 1010.9
20260504212521 56 45 0.0 0.0 0.00 0.00 0.00 50 1010.9
20260504211021 57 112 0.0 0.0 0.00 0.00 0.00 50 1010.9
20260504205521 57 135 0.0 0.0 0.00 0.00 0.00 48 1011.0
20260504204021 58 135 0.0 0.0 0.00 0.00 0.00 47 1011.0
20260504202521 58 135 0.0 0.0 0.00 0.00 0.00 47 1010.7
20260504201021 59 315 0.0 0.0 0.00 0.00 0.00 45 1010.7
20260504195521 60 315 0.0 0.0 0.00 0.00 0.00 43 1010.7
20260504194021 62 315 0.0 0.0 0.00 0.00 0.00 41 1010.7
20260504192521 63 315 0.0 0.0 0.00 0.00 0.00 40 1010.7
20260504191021 64 225 0.0 0.0 0.00 0.00 0.00 39 1010.9
20260504185523 64 292 2.0 0.0 0.00 0.00 0.00 38 1010.7
20260504184021 65 180 3.0 0.0 0.00 0.00 0.00 36 1010.5
20260504182521 66 22 0.0 0.0 0.00 0.00 0.00 34 1010.5
20260504181021 67 337 3.0 0.0 0.00 0.00 0.00 33 1010.5
20260504175521 69 270 0.0 0.0 0.00 0.00 0.00 32 1010.5
20260504174021 72 337 0.0 0.0 0.00 0.00 0.00 30 1010.5
20260504172521 76 0 0.0 0.0 0.00 0.00 0.00 29 1010.5
20260504171021 80 22 0.0 0.0 0.00 0.00 0.00 29 1010.2
20260504151021 82 247 0.0 0.0 0.00 0.00 0.00 27 1010.2
20260504141021 86 247 6.0 0.0 0.00 0.00 0.00 25 1010.5